Weather WX

World > North America > United States > Mississippi

Wallerville, Mississippi Regional Weather

Lat: 34.44N, Lon: 88.95W
Wx Zone: MSZ014
Feedback

Wallerville, MS Regional Weather

Expires:201906152300;;128636
ASUS44 KJAN 152210
RWRMS 

MISSISSIPPI HOURLY WEATHER ROUNDUP
NATIONAL WEATHER SERVICE JACKSON MS
500 PM CDT SAT JUN 15 2019

NOTE: "FAIR: INDICATES FEW OR NO CLOUDS BELOW 12,000 FEET WITH NO
SIGNIFICANT WEATHER AND/OR OBSTRUCTIONS TO VISIBILITY.


MSZ003>006-009-014>017-022>024-029>033-037>039-152300-
NORTHEAST MISSISSIPPI
  
CITY           SKY/WX    TMP DP  RH WIND       PRES   REMARKS
ABERDEEN       FAIR      88  77  70 S7G15     29.99F HX 100           
COLUMBUS AFB   NOT AVBL                                               
CORINTH        FAIR      88  64  45 S10       29.95F                  
GOLDN TRIANGLE FAIR      89  70  53 SW7       29.99F HX  94           
STARKVILLE     FAIR      88  70  55 S3        30.00S HX  92           
TUPELO         FAIR      90  66  45 SW9G16    29.96F HX  92           
$$


SKY/WX - Weather  TMP - Temperature  DP - Dew Point  RH - Relative Humidity
WIND - Wind Direction/Speed PRES - Barometric Pressure VSB - Visibility
WCI - Wind Chill Index E13G22 Wind - East Wind 13 mph/Gusts of 22 mph